{"data":{"norad_id":65277,"epoch":"2026-09-20T20:27:15.502464Z","epoch_age_seconds":87091,"freshness":"FRESH","line1":"1 65277U 25184E   26263.85226276  .00006870  00000+0  21492-3 0  9995","line2":"2 65277  97.2840 311.7471 0001094  97.9720 262.1647 15.33444745 60779","mean_motion":15.33444745,"eccentricity":0.0001094,"inclination_deg":97.284,"raan_deg":311.7471,"arg_perigee_deg":97.972,"mean_anomaly_deg":262.1647,"bstar":0.00021492,"rev_number":6077,"period_min":93.90622027271,"perigee_km":464.79523448474,"apogee_km":466.29263187292,"semimajor_km":6843.6809331788,"source":"CELESTRAK","updated_at":"2026-09-21T09:00:35.564405Z"}}